{"data":{"norad_id":53003,"intl_designator":"2022-076T","name":"STARLINK-4255","alt_names":[],"object_type":"PAYLOAD","status":"ACTIVE","operator":null,"country":"US","launch_date":"2022-07-07","launch_site_code":"AFETR","launch_vehicle":null,"mission":null,"orbit_class":"UNKNOWN","rcs_meters":null,"size_class":null,"mass_kg":null,"dimensions":null,"purposes":["comms"],"wikipedia_slug":null,"has_3d_model":false,"image_url":null,"decayed_at":null,"tle_current":{"epoch":"2026-05-25T04:06:06.065856Z","epoch_age_seconds":56962,"freshness":"FRESH","line1":"1 53003U 22076T   26145.17090354  .00001194  00000+0  93069-4 0  9990","line2":"2 53003  53.2136 110.7802 0001181  84.0903 276.0224 15.08844048214391","mean_motion":15.08844048,"eccentricity":0.0001181,"inclination_deg":53.2136,"raan_deg":110.7802,"arg_perigee_deg":84.0903,"mean_anomaly_deg":276.0224,"bstar":9.3069e-5,"rev_number":21439,"period_min":95.437298633265,"perigee_km":538.91401566252,"apogee_km":540.54801608787,"semimajor_km":6917.8680158752,"source":"CELESTRAK","updated_at":"2026-05-25T13:38:17.276736Z"}}}